CZ-6A DEB, 54353

Orbit data source: Space-Track

CZ-6A DEB, 54353 is space debris in SSO originally from a launch on Fri, 11 Nov 2022 UTC launched from the Taiyaun Space Center, China (TSC). Debris objects in space refer to the collection of defunct objects orbiting the Earth. Examples of debris include non-operational satellites, rocket bodies, and fragments generated from explosions, collisions, or faulty payload assembly.

Loading next visibility...
Identifier
54353, 2022-151CY
Orbit
SSO
Country
Flag of CNCN / PRC
Related business
Manufacturer
SAST
Mission
Spacecraft
Bus & Motor
Unknown
Mass
Unknown
Launch date (UTC)
2022-11-11 (3 years ago)
Launch vehicle
Unknown
Launch site
Taiyaun Space Center, China (TSC)
Object type
Payload
Rocket body
Debris
Shape & HBR
Unknown shape, 0.1 m
Radar Cross Section
Small (<0.1 m²)

Expand to show TLE details & history
Last TLE update: 13 hours ago

TLE from 13 hours ago
0 CZ-6A DEB
1 54353U 22151CY  25355.24922247  .00012403  00000-0  21904-2 0  9991
2 54353  99.0732 100.7057 0116287 187.8544 172.0838 14.63233357163505
Epoch: 2025-12-21T05:58Z
TLE epoch observation values (Epoch: 2025-12-21T05:58:52.821Z)
Latitude
-0.00001°
Longitude
-79.07877°
Altitude
767.076 km
Speed
7.428 km/s
True Right ascension
06h 42m 49s
True Declination
0° 00' 00"
Sunlit
Object was in full shadow at epoch
Visualization orbit readout
Latitude
Unknown
Longitude
Unknown
Altitude
Unknown
Speed
Unknown
Apparent Right ascension
Unknown
Apparent Declination
Unknown
Sunlit
N/A
Visualization observer readout
Local Sidereal Time
17:40:52
Azimuth
Unknown
Elevation
Unknown
Doppler factor
Unknown
Orbital elements
Apogee altitude
761.947 km
Perigee altitude
597.796 km
Semi-major axis
7,058.009 km
Eccentricity
0.01163
Inclination
99.0732°
RAAN
100.7057°
Arg. of periapsis
187.8544°
True anomaly
172.26472°
Mean anomaly
172.0838°
Eccentric anomaly
172.17452°
Mean motion
3.66033 °/min
Orbital period
98.35 mins
BSTAR
0.0021904
Loading maneuver chart data...
Computing Atmospheric mass density...
Loading historical data...
Loading historical data...
Loading historical data...
Loading historical data...
Loading historical data...
Loading historical data...
Loading historical data...

Documentation

Showing up to 5 results
|